Regional Weather Roundup
Issued by NWS Charleston, SC

Current Version | Previous Version | Graphics & Text | Print | Product List | Glossary On
Versions: 1 2 3 4 5 6 7 8 9 10 11 12 13 14 15 16 17 18 19 20 21 22 23 24 25 26 27 28 29 30 31 32 33 34 35 36 37 38 39 40 41 42 43 44 45 46 47 48 49 50
000
ASUS42 KCHS 030526
RWRCHS

REGIONAL WEATHER ROUNDUP
NATIONAL WEATHER SERVICE CHARLESTON SC
1200 AM EST TUE MAR 03 2015

NOTE: "FAIR" INDICATES FEW OR NO CLOUDS BELOW 12,000 FEET WITH NO
SIGNIFICANT WEATHER AND/OR OBSTRUCTIONS TO VISIBILITY.

NOT ALL STATIONS ARE QUALITY CONTROLLED BY THE NATIONAL
WEATHER SERVICE. USE DATA WITH CAUTION...ESPECIALLY
DEWPOINT OBSERVATIONS.

SCZ027-030-031-034>040-042>050-030600-
...SOUTHEAST SOUTH CAROLINA...

CITY           SKY/WX    TMP DP  RH WIND       PRES   REMARKS
N CHARLESTON   FAIR      56  51  84 E6        30.28F
WATERFRONT PRK NOT AVBL
MOUNT PLEASANT CLOUDY    55  52  88 CALM      30.27S
PINOPOLIS        N/A     61  54  77 CALM      30.21S
MONCKS CORNER  CLOUDY    57  52  82 SE3       30.26F
SUMMERVILLE    CLOUDY    57  52  82 E5        30.27F
BEAUFORT MCAS  MOCLDY    56  53  90 E5        30.26F
BEAUFORT ARPT  MOCLDY    55  55 100 CALM      30.25F
HILTON HEAD IS CLOUDY    55  55 100 NE7       30.26F
WALTERBORO     CLOUDY    57  54  88 SE8       30.26F
ALLENDALE      CLOUDY    63  57  82 CALM      30.23F

...SOUTHERN MIDLANDS AND PEE DEE...

CITY           SKY/WX    TMP DP  RH WIND       PRES   REMARKS
GEORGETOWN     NOT AVBL
KINGSTREE      NOT AVBL
ORANGEBURG     MOCLDY    59  50  72 CALM      30.25F
BARNWELL       MOCLDY    61  55  82 E6        30.24F
AIKEN          MOCLDY    59  54  82 SE6       30.26F
MANNING        CLOUDY    59  41  51 E3        30.27S
COLUMBIA       CLOUDY    59  52  77 E6        30.25F
SUMTER         CLOUDY    56  51  81 E5        30.25F
FLORENCE       MOCLDY    51  48  89 SE8       30.29S
MYRTLE BEACH   CLOUDY    50  43  76 E16G23    30.32F
N MYRTLE BEACH FAIR      50  43  77 E10       30.31S

$$

GAZ063-065-086>088-099>101-113>116-118-119-134>141-150-030600-
...SOUTHEAST GEORGIA...

CITY           SKY/WX    TMP DP  RH WIND       PRES   REMARKS
SAVANNAH ARPT  CLOUDY    60  57  89 CALM      30.24F
HUNTER AAF     MOCLDY    58  58 100 E1        30.22F
FORT STEWART   CLOUDY    59  58  95 CALM      30.22F
STATESBORO     CLOUDY    58  58 100 CALM      30.22F
SYLVANIA       CLOUDY    58  58 100 CALM      30.23F
CLAXTON        CLOUDY    55  55 100 CALM      30.23F

...CSRA...CENTRAL AND FAR SOUTHEAST GEORGIA...

CITY           SKY/WX    TMP DP  RH WIND       PRES   REMARKS
THOMSON        CLOUDY    59  59  99 CALM      30.26F
AUGUSTA-BUSH   CLOUDY    59  56  89 CALM      30.23F
AUGUSTA-DANIEL MOCLDY    64  56  75 E7        30.23F
SWAINSBORO     NOT AVBL
VIDALIA        CLOUDY    63  61  94 CALM      30.22F
EASTMAN        MOCLDY    59  59 100 S3        30.25F
HAZLEHURST     FOG       59  59 100 CALM      30.22F VSB 1
ALMA           FOG       56  55  97 CALM      30.23F VSB 1/2
WAYCROSS       FOG       59  59 100 CALM      30.23F VSB 1/2
JESUP          CLOUDY    61  61 100 CALM      30.24S
BAXLEY         FOG       57  57 100 CALM      30.23F VSB 3/4
BRUNSWICK      CLOUDY    55  54  94 CALM      30.25S VSB 3/4
SAINT SIMONS   FAIR      57  55  93 SW7       30.24F

$$

SCZ027-028-034-036>038-045-046-048>050-GAZ119-141-030600-
...LAKE AND SUPPLEMENTAL COASTAL OBSERVATIONS...

STATION/POSITION TIME  TEMP    WIND        PRES    WAVE   SWELL
                       AIR SEA DIR/SP/G            HT/PER HT/PER/DIR
                 (UTC) (F)     (DEG/KT/KT) (MB)    (FT/S) (FT/S/D)
UPR LAKE MARION  NOT AVBL
WINYAH BAY       0345   53      60/  3     1025.0
LAKE MURRAY      0400   58      80/  4/  4 1024.4R
ACE BASIN NERRS  NOT AVBL
FORT PULASKI     0500                      1024.5F
SAPELO ISLAND    0400   57     180/  2     1024.0S

$$

ANZ835-935-AMZ111-154-330-350-352-354-370-450-454-472-030600-
...C-MAN AND BUOY OBSERVATIONS...

STATION/POSITION TIME  TEMP    WIND        PRES    WAVE   SWELL
                       AIR SEA DIR/SP/G            HT/PER HT/PER/DIR
                 (UTC) (F)     (DEG/KT/KT) (MB)    (FT/S) (FT/S/D)
BUOY 41004       0450   64 67   80/ 14/ 16 1024.4F   4/ 9   3/ 9
BUOY 41008       0450   54 52  230/  4/  6 1024.0F   2/ 9   2/100/ 9
FOLLY BEACH CMAN 0500   50      30/  5/  6 1025.3F
CAPERS NEARSHORE NOT AVBL
FRIPP NEARSHORE  0400   53      80/ 10/ 12 1024.2R


STATION/POSITION TIME  TEMP    WIND        PRES    WAVE   SWELL
                       AIR SEA DIR/SP/G            HT/PER HT/PER/DIR
                 (UTC) (F)     (DEG/KT/KT) (MB)    (FT/S) (FT/S/D)
5E ST. MARYS GA  0421      53                N/A     2/ 8
FRYING PAN BUOY  0450   57 62   80/ 17/ 21 1026.1F   5/ 5   2/170/ 8
BUOY 41025       NOT AVBL
CAPE LOOKOUT NC  0500   46      50/ 22/ 24 1028.2S
BUOY 41002       0450   67 73   30/ 16/ 19 1024.0S   6/ 8   3/100/ 8
BUOY 41010       0420   73 75   30/  4/  6 1024.2F
ST AUGUSTINE FL  0500   59      60/  6/  6 1024.7F


$$



USA.gov is the U.S. government's official web portal to all federal, state and local government web resources and services.